Location: Drocourt
(49.0571°N, 1.7669°E)
Time: 21:00:27
(UTC+00:00)

Lacrosse 4 Rocket - Pass Details

Date: 09 February 2023
Orbit: 535 x 608 km, 68.0° (Epoch: 21 March)

Event Time Altitude Azimuth Distance (km) Brightness Sun altitude
Rises 19:28:49 0° 329° (NNW) 2,840 5.5 -24.3°
Reaches altitude 10° 19:31:10 10° 335° (NNW) 1,923 4.4 -24.7°
Enters shadow 19:33:43 31° 355° (N) 1,027 2.7 -25.1°
